Regional Weather Roundup
Issued by NWS Newport/Morehead, NC

Home | Current Version | Previous Version | Text Only | Print | Product List | Glossary On
Versions: 1 2 3 4 5 6 7 8 9 10 11 12 13 14 15 16 17 18 19 20 21 22 23 24 25 26 27 28 29 30 31 32 33 34 35 36 37 38 39 40 41 42 43 44 45 46 47 48 49 50
000
ASUS42 KMHX 241425
RWRMHX
WEATHER ROUNDUP FOR EASTERN NORTH CAROLINA
NATIONAL WEATHER SERVICE NEWPORT/MOREHEAD CITY NC
1000 AM EDT SUN SEP 24 2017

NOTE: "FAIR" INDICATES FEW OR NO CLOUDS BELOW 12,000 FEET
WITH NO SIGNIFICANT WEATHER AND/OR OBSTRUCTIONS TO VISIBILITY

NCZ015>017-031-032-045>047-102-103-241500-
NORTH COAST

CITY           SKY/WX    TMP DP  RH WIND       PRES   REMARKS
EDENTON        PTSUNNY   75  70  85 CALM      30.06F
ELIZABETH CITY MOSUNNY   77  71  82 N7        30.06S
KITTY HAWK     SUNNY     74  66  74 CALM      30.04S
MANTEO         MOSUNNY   77  67  71 NE9       30.05S

$$

NCZ045>047-081-094-103-104-241500-
CENTRAL COAST

CITY           SKY/WX    TMP DP  RH WIND       PRES   REMARKS
FRISCO         MOSUNNY   78  69  73 NE12G22   30.03S

$$

NCZ095-097-098-100-101-241500-
SOUTHERN COAST

CITY           SKY/WX    TMP DP  RH WIND       PRES   REMARKS
BEAUFORT       MOSUNNY   78  71  79 NE14G25   30.02R
CEDAR ISLAND   NOT AVBL
JACKSONVILLE   MOSUNNY   77  70  79 NE12G21   30.03S
PINEY ISLAND     N/A    N/A N/A N/A NE15      30.03S
WILMINGTON     PTSUNNY   79  68  69 NE17      30.02S


$$

NCZ011>013-027>030-043-044-078>080-089-090>093-098-241500-
COASTAL PLAIN

CITY           SKY/WX    TMP DP  RH WIND       PRES   REMARKS
AHOSKIE        MOSUNNY   74  67  80 N3        30.07F
CLINTON        SUNNY     77  70  78 NE7       30.07S
ELIZABETHTOWN  NOT AVBL
GOLDSBORO      MOSUNNY   75  74  97 NE7       30.06S
GREENVILLE     SUNNY     77  70  78 N7        30.09S
HAVELOCK       MOSUNNY   78  71  79 NE12      30.04S
KENANSVILLE    SUNNY     75  68  78 NE7       30.07S
KINSTON        MOSUNNY   75  70  83 N5        30.08S
NEW BERN       MOSUNNY   76  69  79 NE12      30.06S
RICHLANDS      MOSUNNY   75  69  81 N8        30.06R
ROCKY MOUNT    MOSUNNY   76  68  76 N9        30.09S
WASHINGTON     CLOUDY    76  69  80 N7        30.07S
WHITEVILLE     MOSUNNY   75  68  77 N3        30.04S

$$

AMZ130-135-150-152-154-156-158-170-250-252-270-ANZ085-086-088-633-658-670-241500-
MARINE OBSERVATIONS

STATION/POSITION TIME  TEMP    WIND        PRES    WAVE   SWELL
                       AIR SEA DIR/SP/G            HT/PER HT/PER
                 (UTC) (F)     (DEG/KT/KT) (MB)    (FT/S) (FT/S)
CHESAPEAKE LIGHT NOT AVBL
64 E VA BEACH    1350   70 70   30/  6/  8 1017.9    8/14   8/14
DUCK             1400   74 76   10/  7/  9 1017.2
2 E DUCK         1330      76                N/A     5/14   3/14
OREGON INLET     1400   75 76   30/ 10/ 14 1017.2
13E OREGON INLT  1348      75                N/A     6/13   7/13
HATTERAS CG      1400   76 77   50/ 13/ 20 1016.7
DIAMOND BUOY     1350   74 75   30/ 19/ 23 1015.6    7/14   7/14
CAPE LOOKOUT     1400   77      40/ 24/ 26 1016.0
BEAUFORT LAB     1400   77 76   30/ 12/ 17 1015.9
30 SE NEW RVR IN 1408   78      50/ 19/ 25 1015.2
30 SE NEW RVR IN NOT AVBL
27 SE WRIGHTSVLE 1408   77 80   60/ 19/ 25 1015.2
5 SE WRIGHTSVLE  1408   76 78   40/ 14/ 25 1015.9
225 S CAPE HAT   1350   79 79   40/ 25/ 31 1009.4   16/14  13/14
41 SE CHARLESTON 1410   79 82   30/ 17/ 21 1014.6

$$




USA.gov is the U.S. government's official web portal to all federal, state and local government web resources and services.